Content
SEND FEEDBACK

Daily
Averages
Monthly
Summary
United States of America

DAY RANCH, NEBRASKA


Home > North America > United States > Nebraska
Elevation: 2050 feet     Latitude: 41 57N     Longitude: 098 16W

WEATHER
 
SELECT A DAY
Number of Records: 242,700;   Date Range: 8/16/04 - 7/23/14
 
SHARE

PRINT THIS DATA

[ ← Previous Day ]
WEATHER ALMANAC - JANUARY 31, 2013
[ Next Day → ]
[ °C ]   °F
Weather ElementAverageHighLow
Temperature7.7 °F12.9 °F (12:35 am)0.3 °F (10:35 pm)
Dewpoint-3.1 °F5.7 °F (12:35 am)-7.2 °F (1:35 pm)
Humidity62.5 %81 % (4:35 am)45 % (1:35 pm)
Barometer30.18 in30.35 in (10:15 pm)29.92 in (12:35 am)
Wind Speed13.8 mph28.8 mph (12:35 pm)
Wind Gust38 mph (9:55 am)
Weather ElementAverage
Visibility10 mi
Wind DirectionWNW (294.1 °)

Weather ElementTotal
Precipitation---
Heating Degree Days58.4 (Base 65)
Averaged from 68 records on January 31, 2013
WEATHER CONDITIONS BREAKOUT
WIND DIRECTION BREAKOUT
WEATHER BY HOUR - JANUARY 31, 2013
[ °C ]   °F
Local TimeTemperatureDewpointHumidityBarometerVisibilityWind DirectionWind SpeedGust SpeedPrecipitationEventsConditions
12:35 AM12.9 °F5.7 °F73 %29.92 in10.0 miNNW (330°)12.7 mphOvercast
12:55 AM12.2 °F5.5 °F75 %29.92 in10.0 miNNW (340°)9.2 mphOvercast
1:15 AM11.5 °F4.6 °F74 %29.93 in10.0 miNNW (330°)10.4 mphMostly Cloudy
1:35 AM11.7 °F4.6 °F73 %29.94 in10.0 miNNW (330°)11.5 mph18.4 mphMostly Cloudy
1:55 AM11.3 °F4.1 °F73 %29.92 in10.0 miNW (320°)11.5 mphMostly Cloudy
2:15 AM10.4 °F3.7 °F74 %29.93 in10.0 miNW (320°)10.4 mphScattered Clouds
2:35 AM10.2 °F3.7 °F75 %29.95 in10.0 miNW (320°)9.2 mphScattered Clouds
2:55 AM10.0 °F3.6 °F75 %29.95 in10.0 miNW (320°)10.4 mphScattered Clouds
3:15 AM9.9 °F3.9 °F77 %29.94 in10.0 miNW (320°)10.4 mphScattered Clouds
3:35 AM9.3 °F4.1 °F79 %29.95 in10.0 miNW (320°)10.4 mphClear
3:55 AM9.1 °F3.9 °F79 %29.96 in10.0 miNW (320°)10.4 mphClear
4:15 AM8.8 °F3.7 °F80 %29.96 in10.0 miNW (320°)8.1 mphClear
4:35 AM8.1 °F3.2 °F81 %29.98 in10.0 miNNW (330°)9.2 mphClear
4:55 AM9.1 °F3.7 °F79 %29.98 in10.0 miNNW (340°)8.1 mphMostly Cloudy
5:15 AM9.5 °F3.7 °F77 %29.99 in10.0 miNW (320°)10.4 mphOvercast
5:35 AM9.5 °F3.4 °F76 %30.01 in10.0 miNW (320°)13.8 mph18.4 mphMostly Cloudy
6:15 AM9.0 °F0.7 °F69 %30.03 in10.0 miNW (320°)13.8 mphOvercast
6:55 AM7.0 °F-1.7 °F68 %30.06 in10.0 miNW (320°)13.8 mph21.9 mphScattered Clouds
7:15 AM6.6 °F-2.2 °F67 %30.06 in10.0 miNW (320°)15.0 mph23.0 mphOvercast
7:35 AM5.9 °F-2.2 °F69 %30.08 in10.0 miNW (320°)17.3 mph21.9 mphMostly Cloudy
7:55 AM5.9 °F-3.1 °F67 %30.09 in10.0 miNW (320°)21.9 mph25.3 mphScattered Clouds
8:15 AM5.9 °F-2.7 °F68 %30.10 in10.0 miNW (310°)15.0 mph23.0 mphClear
8:35 AM5.9 °F-3.1 °F67 %30.12 in10.0 miNW (320°)19.6 mph24.2 mphClear
8:55 AM6.3 °F-2.9 °F66 %30.14 in10.0 miNW (320°)21.9 mph27.6 mphMostly Cloudy
9:15 AM6.6 °F-2.4 °F67 %30.16 in10.0 miNW (320°)23.0 mph26.5 mphMostly Cloudy
9:35 AM6.6 °F-3.3 °F64 %30.18 in10.0 miNNW (330°)18.4 mph29.9 mphMostly Cloudy
9:55 AM7.5 °F-4.9 °F57 %30.19 in10.0 miNNW (330°)24.2 mph38.0 mphScattered Clouds
10:15 AM7.9 °F-4.4 °F57 %30.20 in10.0 miNW (320°)24.2 mph38.0 mphScattered Clouds
10:35 AM7.5 °F-5.1 °F56 %30.21 in10.0 miNW (320°)27.6 mph36.8 mphMostly Cloudy
10:55 AM8.4 °F-4.5 °F56 %30.23 in10.0 miNW (320°)27.6 mph34.5 mphMostly Cloudy
11:15 AM9.0 °F-5.3 °F53 %30.24 in10.0 miNNW (330°)20.7 mph33.4 mphScattered Clouds
11:35 AM9.0 °F-4.9 °F53 %30.25 in10.0 miNW (320°)25.3 mph33.4 mphScattered Clouds
11:55 AM9.3 °F-4.7 °F53 %30.25 in10.0 miNNW (330°)27.6 mph33.4 mphMostly Cloudy
12:15 PM9.3 °F-6.5 °F49 %30.24 in10.0 miNNW (330°)26.5 mph32.2 mphScattered Clouds
12:35 PM10.2 °F-6.5 °F47 %30.25 in10.0 miNNW (330°)28.8 mph34.5 mphClear
12:55 PM10.2 °F-7.1 °F46 %30.25 in10.0 miNNW (330°)25.3 mph34.5 mphClear
1:15 PM10.4 °F-6.7 °F46 %30.25 in10.0 miNW (320°)25.3 mph33.4 mphClear
1:35 PM10.2 °F-7.2 °F45 %30.25 in10.0 miNNW (340°)20.7 mph34.5 mphClear
1:55 PM10.4 °F-6.9 °F46 %30.26 in10.0 miNNW (330°)19.6 mph33.4 mphClear
2:15 PM11.5 °F-6.0 °F46 %30.26 in10.0 miNNW (330°)19.6 mph26.5 mphClear
2:35 PM10.8 °F-6.3 °F46 %30.26 in10.0 miNNW (330°)23.0 mph27.6 mphClear
2:55 PM11.3 °F-6.3 °F45 %30.26 in10.0 miNNW (330°)18.4 mph24.2 mphClear
3:15 PM10.9 °F-6.7 °F45 %30.27 in10.0 miNNW (330°)20.7 mph25.3 mphClear
3:35 PM10.4 °F-6.3 °F47 %30.27 in10.0 miNNW (330°)19.6 mph26.5 mphClear
3:55 PM10.4 °F-6.3 °F47 %30.28 in10.0 miNNW (330°)18.4 mphClear
4:15 PM10.4 °F-6.3 °F47 %30.28 in10.0 miNNW (330°)16.1 mphClear
4:35 PM10.2 °F-6.2 °F48 %30.29 in10.0 miNNW (330°)15.0 mph19.6 mphClear
4:55 PM9.5 °F-6.7 °F48 %30.29 in10.0 miNW (320°)15.0 mphClear
5:15 PM8.8 °F-6.7 °F50 %30.30 in10.0 miNW (320°)11.5 mphClear
5:35 PM8.1 °F-6.3 °F52 %30.30 in10.0 miNW (320°)10.4 mph16.1 mphClear
5:55 PM7.0 °F-6.0 °F55 %30.30 in10.0 miNW (320°)8.1 mphClear
6:15 PM6.3 °F-5.4 °F59 %30.30 in10.0 miNW (320°)9.2 mphClear
6:35 PM6.6 °F-5.3 °F58 %30.31 in10.0 miNNW (330°)11.5 mphClear
6:55 PM5.9 °F-5.4 °F60 %30.31 in10.0 miNNW (330°)10.4 mphClear
7:15 PM4.8 °F-6.0 °F61 %30.31 in10.0 miNW (310°)8.1 mphClear
7:35 PM4.1 °F-6.0 °F63 %30.31 in10.0 miNW (320°)8.1 mphClear
7:55 PM3.6 °F-5.8 °F65 %30.31 in10.0 miNNW (330°)5.8 mphClear
8:15 PM3.6 °F-5.8 °F65 %30.31 in10.0 miNNW (330°)6.9 mphClear
8:35 PM2.8 °F-5.8 °F67 %30.31 in10.0 miNNW (340°)4.6 mphClear
8:55 PM2.3 °F-6.0 °F68 %30.32 in10.0 miCalmClear
9:15 PM1.9 °F-6.5 °F68 %30.34 in10.0 miCalmClear
9:35 PM1.4 °F-6.7 °F69 %30.34 in10.0 miCalmClear
9:55 PM0.5 °F-7.1 °F70 %30.34 in10.0 miCalmClear
10:15 PM0.9 °F-6.9 °F70 %30.35 in10.0 miCalmClear
10:35 PM0.3 °F-6.9 °F72 %30.35 in10.0 miWSW (240°)3.5 mphScattered Clouds
10:55 PM2.1 °F-5.6 °F70 %30.34 in10.0 miCalmOvercast
11:15 PM3.6 °F-4.7 °F68 %30.34 in10.0 miWNW (290°)4.6 mphOvercast
11:35 PM4.8 °F-5.8 °F62 %30.32 in10.0 miWNW (290°)3.5 mphOvercast
Hourly data recorded from KBVN, located miles away from Day Ranch, Nebraska







STORIES FROM OUR PARTNERS